Regional Weather Roundup
Issued by NWS Northern Indiana

Home | Current Version | Previous Version | Text Only | Print | Product List | Glossary Off
Versions: 1 2 3 4 5 6 7 8 9 10 11 12 13 14 15 16 17 18 19 20 21 22 23 24 25 26 27 28 29 30 31 32 33 34 35 36 37 38 39 40 41 42 43 44 45 46 47 48 49 50

000
ASUS43 KIWX 170000
RWRIWX

KIWX WEATHER ROUNDUP
NATIONAL WEATHER SERVICE NORTHERN INDIANA
800 PM EDT MON OCT 16 2017

NOTE: "FAIR" INDICATES FEW OR NO CLOUDS BELOW 12,000 FEET WITH NO
SIGNIFICANT WEATHER AND/OR OBSTRUCTIONS TO VISIBILITY.

* THESE STATIONS ARE NOT UNDER NWS QUALITY CONTROL. THEY ALSO MAY NOT
  REPORT WEATHER SUCH AS PRECIPITATION OR FOG.

INZ001>027-170100-
NORTHERN INDIANA

CITY           SKY/WX    TMP DP  RH WIND       PRES   REMARKS
GARY*          CLEAR     50  41  71 VRB3      30.24R
SOUTH BEND     CLEAR     49  41  74 CALM      30.25S
6HR MIN TEMP:  49; 6HR MAX TEMP:  59;

GOSHEN         CLEAR     49  40  71 CALM      30.25S
6HR MIN TEMP:  49; 6HR MAX TEMP:  59;

MONTICELLO*    CLEAR     53  37  54 S3        30.25S
6HR MIN TEMP:  53; 6HR MAX TEMP:  63;

FORT WAYNE     CLEAR     49  38  65 S3        30.27S
6HR MIN TEMP:  49; 6HR MAX TEMP:  61;

PERU/GRISSOM   CLEAR     49  38  67 S5        30.26S
6HR MIN TEMP:  49; 6HR MAX TEMP:  62;


$$
INZ028>050-170100-
CENTRAL INDIANA

CITY           SKY/WX    TMP DP  RH WIND       PRES   REMARKS
LAFAYETTE      CLEAR     50  42  74 CALM      30.26S
6HR MIN TEMP:  50; 6HR MAX TEMP:  63;

KOKOMO*        CLEAR     50  39  66 S3        30.28S
6HR MIN TEMP:  50; 6HR MAX TEMP:  61;

MUNCIE*        CLEAR     47  41  80 CALM      30.28S
6HR MIN TEMP:  47; 6HR MAX TEMP:  63;

INDIANAPOLIS   CLEAR     54  36  50 W6        30.30R
6HR MIN TEMP:  54; 6HR MAX TEMP:  62;


$$
MIZ043>046-050>051-056>058-064>065-071>073-077>080-170100-
SOUTHWEST LOWER MICHIGAN

CITY           SKY/WX    TMP DP  RH WIND       PRES   REMARKS
BATTLE CREEK   CLEAR     49  39  68 CALM      30.25S
6HR MIN TEMP:  49; 6HR MAX TEMP:  58;

BENTON HARBOR  CLEAR     48  42  80 CALM      30.23F
6HR MIN TEMP:  48; 6HR MAX TEMP:  58;

COLDWATER*     CLEAR     46  41  84 CALM      30.26S
6HR MIN TEMP:  46; 6HR MAX TEMP:  58;

HILLSDALE*     CLEAR     45  41  87 CALM      30.25S
HOLLAND        CLEAR     47  41  80 S5        30.23F
6HR MIN TEMP:  47; 6HR MAX TEMP:  59;

GRAND RAPIDS   PTCLDY    49  40  71 S6        30.23S
6HR MIN TEMP:  49; 6HR MAX TEMP:  58;

STURGIS*       CLEAR     46  40  80 E3        30.24F
6HR MIN TEMP:  46; 6HR MAX TEMP:  58;

THREE RIVERS*  FAIR      49  40  69 CALM      30.25F
6HR MIN TEMP:  49; 6HR MAX TEMP:  60;


$$
OHZ001>008-015>018-024>025-170100-
NORTHWEST OHIO

CITY           SKY/WX    TMP DP  RH WIND       PRES   REMARKS
DEFIANCE       CLEAR     48  40  73 CALM      30.27R
6HR MIN TEMP:  47; 6HR MAX TEMP:  58; 6HR PCP: TRACE;

FINDLAY        CLEAR     49  39  68 CALM      30.27R
6HR MIN TEMP:  49; 6HR MAX TEMP:  59;

TOLEDO EXPRESS CLEAR     47  44  90 CALM      30.27R
6HR MIN TEMP:  47; 6HR MAX TEMP:  59;

TOLEDO METCALF CLEAR     51  40  65 CALM      30.28R
6HR MIN TEMP:  51; 6HR MAX TEMP:  59;

LIMA           CLEAR     46  42  86 S3        30.27S
6HR MIN TEMP:  46; 6HR MAX TEMP:  57;


$$
AND FOR LAKE MICHIGAN COASTAL AND OPEN LAKE BUOY OBSERVATIONS

STATION/POSITION TEMP    WIND        PRES    VSBY  WAVE
                 AIR SEA DIR/SP/G                  HT/PER
                 (F)     (DEG/KT/KT) (MB)    (MI)  (FT/S)
CALUMET HARBOR    59     210/  2/  3 1022.8S
MICHIGAN CITY     59     180/  6/  6   N/A
BURNS HARBOR      60     220/  6/  8 1024.0S
SAINT JOSEPH      56     160/  2/  5 1024.4
SOUTH LAKE BUOY   58 62  220/ 10/ 12 1023.2          1/ 3
4 MI NW BRIDGMAN  57 58  180/  8/ 10 1023.9F         2/ 5
MICHIGAN CITY     58 58  190/  4/  4   N/A           1/ 6

$$
&&



USA.gov is the U.S. government's official web portal to all federal, state and local government web resources and services.